TimeCST,TemperatureF,Dew PointF,Humidity,Sea Level PressureIn,VisibilityMPH,Wind Direction,Wind SpeedMPH,Gust SpeedMPH,PrecipitationIn,Events,Conditions,WindDirDegrees,DateUTC
12:53 AM,44.1,39.0,82,30.12,10.0,SSE,6.9,-,N/A,,Clear,160,2013-03-04 06:53:00
1:53 AM,44.1,39.0,82,30.10,10.0,SE,4.6,-,N/A,,Clear,140,2013-03-04 07:53:00
3:53 AM,43.0,39.0,86,30.07,10.0,SE,6.9,-,N/A,,Clear,130,2013-03-04 09:53:00
4:53 AM,41.0,37.9,89,30.07,9.0,SE,6.9,-,N/A,,Clear,130,2013-03-04 10:53:00
6:53 AM,46.0,42.1,86,30.05,8.0,SE,6.9,-,N/A,,Clear,140,2013-03-04 12:53:00
7:53 AM,59.0,53.1,81,30.06,10.0,South,11.5,-,N/A,,Clear,170,2013-03-04 13:53:00
8:53 AM,64.0,53.1,67,30.05,10.0,South,16.1,23.0,N/A,,Clear,170,2013-03-04 14:53:00
9:53 AM,68.0,53.1,59,30.04,10.0,South,23.0,32.2,N/A,,Partly Cloudy,180,2013-03-04 15:53:00
10:53 AM,70.0,54.0,57,30.04,10.0,South,23.0,32.2,N/A,,Scattered Clouds,190,2013-03-04 16:53:00
11:53 AM,71.1,54.0,55,30.02,10.0,South,23.0,33.4,N/A,,Overcast,180,2013-03-04 17:53:00
12:53 PM,73.0,55.0,53,30.00,10.0,South,23.0,29.9,N/A,,Overcast,190,2013-03-04 18:53:00
1:53 PM,72.0,55.0,55,29.97,10.0,South,23.0,32.2,N/A,,Mostly Cloudy,190,2013-03-04 19:53:00
2:53 PM,73.0,55.9,55,29.96,10.0,South,21.9,31.1,N/A,,Mostly Cloudy,180,2013-03-04 20:53:00
3:53 PM,70.0,55.9,61,29.96,10.0,South,18.4,25.3,N/A,,Overcast,180,2013-03-04 21:53:00
4:53 PM,70.0,57.0,63,29.94,10.0,South,15.0,25.3,N/A,,Overcast,180,2013-03-04 22:53:00
5:53 PM,66.9,57.0,70,29.94,10.0,South,12.7,-,N/A,,Overcast,170,2013-03-04 23:53:00
6:53 PM,64.0,57.0,78,29.93,10.0,South,12.7,-,N/A,,Overcast,170,2013-03-05 00:53:00
7:53 PM,64.0,57.0,78,29.91,10.0,South,15.0,-,N/A,,Overcast,170,2013-03-05 01:53:00
8:53 PM,64.0,57.0,78,29.94,10.0,South,10.4,-,N/A,,Overcast,170,2013-03-05 02:53:00
9:53 PM,64.9,57.9,78,29.95,10.0,South,12.7,-,N/A,,Overcast,170,2013-03-05 03:53:00
10:53 PM,64.9,57.9,78,29.93,10.0,South,15.0,-,N/A,,Overcast,180,2013-03-05 04:53:00
11:53 PM,64.9,57.9,78,29.94,10.0,South,10.4,19.6,N/A,,Overcast,180,2013-03-05 05:53:00